Вернуться в каталог

STARLINK-35155

АктивенСвязьVLEO
NORAD 65935·PAYLOAD·🇺🇸 United States

Запущен Oct 8, 2025 с Vandenberg Space Force Base

Loading…

Ближайшие Пролёты (ближайшие 24 часа)

TLE

СвежийSource: CelesTrak SupGP

Эпоха: Sep 14, 2026, 21:21 UTC

1 65935C 25225AB  26257.89006944 -.00010412  00000+0 -30737-3 0  2575
2 65935  53.1591   3.8048 0001356  71.5632 108.5159 15.34420839    15

Отслеживайте STARLINK-35155 в реальном времени с AllMySat

Download on the App Store